Change the Weather History Date:

Sunday, July 28, 2013

  Actual Average Record
Temperature  
Mean Temperature 80 °F 83 °F  
Max Temperature 91 °F 94 °F 104 °F (1931)
Min Temperature 69 °F 72 °F 59 °F (1994)
Degree Days  
Heating Degree Days 0 0  
Month to date heating degree days 0 0  
Since 1 June heating degree days 0 0  
Since 1 July heating degree days 0 0  
Cooling Degree Days 15 18  
Month to date cooling degree days 475 495  
Year to date cooling degree days 1512 1416  
Since 1 June cooling degree days 998 947  
Growing Degree Days 30 (Base 50)    
Moisture  
Dew Point 73 °F    
Average Humidity 80    
Maximum Humidity 100    
Minimum Humidity 59    
Precipitation  
Precipitation 0.13 in 0.09 in 1.20 in (1928)
Month to date precipitation 3.73 2.78  
Year to date precipitation 24.73 26.98  
Snow  
Snow 0.00 in - - ()
Month to date snowfall 0.0  
Since 1 June snowfall 0.0  
Since 1 July snowfall 0.0  
Snow Depth 0.00 in    
Sea Level Pressure  
Sea Level Pressure 29.95 in    
Wind  
Wind Speed 4 mph (SE)    
Max Wind Speed 18 mph    
Max Gust Speed 25 mph    
Visibility 9 miles    
Events Rain , Thunderstorm    
T = Trace of Precipitation, MM = Missing Value Source: NWS Daily Summary

Daily Weather History Graph

Daily Weather History Graph

Search for Another Location

Airport or City:

Trip Planner

Search our weather history database for the weather conditions in past years. The results will help you decide how hot, cold, wet, or windy it might be!

Date:

Astronomy

Jul. 28, 2013 Rise Set
Actual Time 6:33 AM CDT 8:17 PM CDT
Civil Twilight 6:06 AM CDT 8:43 PM CDT
Nautical Twilight 5:34 AM CDT 9:15 PM CDT
Astronomical Twilight 5:01 AM CDT 9:49 PM CDT
Moon No Moon Rise 12:46 PM CDT (7/28)
Length of Visible Light 14h 36m
Length of Day
13h 43m
Waning Gibbous, 60% of the Moon is Illuminated
Jul 28
Waning Gibbous
Jul 29
Last Quarter
Aug 6
New
Aug 14
First Quarter
Aug 20
Full

Hourly Weather History & Observations

Time (CDT) Temp. Heat Index Dew Point Humidity Pressure Visibility Wind Dir Wind Speed Gust Speed Precip Events Conditions
12:53 AM 71.1 °F - 69.1 °F 93% 29.94 in 10.0 mi NNE 3.5 mph - N/A   Clear
1:53 AM 71.1 °F - 69.1 °F 93% 29.93 in 10.0 mi Calm Calm - N/A   Clear
2:53 AM 71.1 °F - 69.1 °F 93% 29.93 in 10.0 mi Calm Calm - N/A   Clear
3:53 AM 70.0 °F - 69.1 °F 97% 29.93 in 9.0 mi Calm Calm - N/A   Clear
4:53 AM 70.0 °F - 69.1 °F 97% 29.94 in 8.0 mi Calm Calm - N/A   Scattered Clouds
5:53 AM 71.1 °F - 69.1 °F 93% 29.94 in 9.0 mi East 3.5 mph - N/A   Overcast
6:53 AM 71.1 °F - 69.1 °F 93% 29.96 in 7.0 mi Calm Calm - N/A   Clear
7:53 AM 73.0 °F - 71.1 °F 93% 29.96 in 8.0 mi ENE 4.6 mph - N/A   Clear
8:53 AM 77.0 °F - 72.0 °F 84% 29.97 in 10.0 mi SE 6.9 mph - N/A   Clear
9:53 AM 81.0 °F 85.8 °F 73.0 °F 77% 29.98 in 10.0 mi SE 8.1 mph - N/A   Clear
10:53 AM 82.9 °F 88.8 °F 73.0 °F 72% 29.98 in 10.0 mi SE 4.6 mph - N/A   Clear
11:53 AM 86.0 °F 93.8 °F 73.9 °F 67% 29.98 in 10.0 mi SE 6.9 mph - N/A   Partly Cloudy
12:53 PM 87.1 °F 95.4 °F 73.9 °F 65% 29.97 in 10.0 mi ENE 5.8 mph - N/A   Partly Cloudy
1:53 PM 89.1 °F 99.1 °F 75.0 °F 63% 29.94 in 10.0 mi East 6.9 mph - N/A   Partly Cloudy
2:53 PM 89.1 °F 97.0 °F 73.0 °F 59% 29.92 in 10.0 mi East 3.5 mph - N/A   Mostly Cloudy
3:11 PM 87.8 °F 95.6 °F 73.4 °F 62% 29.94 in 10.0 mi ESE 6.9 mph - N/A Thunderstorm Mostly Cloudy
3:43 PM 82.4 °F 89.5 °F 75.2 °F 79% 29.94 in 10.0 mi SW 15.0 mph 23.0 mph N/A   Mostly Cloudy
3:53 PM 78.1 °F - 75.0 °F 90% 29.94 in 3.0 mi SW 12.7 mph 25.3 mph 0.04 in Rain Rain
4:11 PM 77.0 °F - 73.4 °F 89% 29.94 in 2.0 mi West 8.1 mph - 0.08 in Rain Rain
4:21 PM 78.8 °F - 73.4 °F 83% 29.94 in 7.0 mi NW 6.9 mph - 0.08 in Rain Light Rain
4:53 PM 82.0 °F 89.4 °F 75.9 °F 82% 29.92 in 10.0 mi Calm Calm - 0.08 in   Mostly Cloudy
5:53 PM 86.0 °F 96.9 °F 77.0 °F 74% 29.91 in 10.0 mi SE 6.9 mph - N/A   Partly Cloudy
6:53 PM 86.0 °F 96.0 °F 75.9 °F 72% 29.92 in 10.0 mi South 6.9 mph - 0.01 in   Clear
7:53 PM 82.0 °F 88.6 °F 75.0 °F 79% 29.92 in 10.0 mi SSE 3.5 mph - N/A   Clear
8:53 PM 79.0 °F - 73.9 °F 84% 29.94 in 10.0 mi Calm Calm - N/A   Partly Cloudy
9:53 PM 78.1 °F - 73.9 °F 87% 29.96 in 10.0 mi ESE 4.6 mph - N/A   Scattered Clouds
10:53 PM 78.1 °F - 75.0 °F 90% 29.97 in 10.0 mi SE 4.6 mph - N/A   Mostly Cloudy
11:53 PM 77.0 °F - 75.0 °F 94% 29.98 in 9.0 mi SE 5.8 mph - N/A   Clear